Regional Weather Roundup
Issued by NWS Huntsville, AL

Home | Current Version | Previous Version | Text Only | Print | Product List | Glossary On
Versions: 1 2 3 4 5 6 7 8 9 10 11 12 13 14 15 16 17 18 19 20 21 22 23 24 25 26 27 28 29 30 31 32 33 34 35 36 37 38 39 40 41 42 43 44 45 46 47 48 49 50
000
ASUS44 KHUN 280410
RWRHUN

WEATHER ROUNDUP FOR THE TENNESSEE VALLEY
NATIONAL WEATHER SERVICE HUNTSVILLE AL
1000 PM CST MON FEB 27 2017

ALZ001>004-280500-
NORTHWEST ALABAMA

CITY           SKY/WX    TMP DP  RH WIND       PRES   REMARKS
COURTLAND HCN    N/A     55 N/A N/A SE5         N/A
RUSSELLVILLE     N/A     55 N/A N/A MISG        N/A
SHOALS AIRPORT CLOUDY    55  50  83 E6        30.20R
SHOALS TVA RES   N/A     54 N/A N/A MISG        N/A
$$

ALZ005>007-016-280500-
NORTH CENTRAL ALABAMA

CITY           SKY/WX    TMP DP  RH WIND       PRES   REMARKS
CULLMAN AG STN   N/A     54 N/A N/A SE5         N/A
DECATUR AP     CLOUDY    55  54  96 S9        30.23R
HUNTSVILLE AP  CLOUDY    56  53  90 S8        30.22R
MERIDIANVILLE  CLOUDY    52  46  82 SE6       30.23R
REDSTONE ARSN  CLOUDY    55  52  90 S7        30.21R
VINEMONT AP    CLOUDY    53  51  94 S8        30.24R
$$

ALZ008>010-280500-
NORTHEAST ALABAMA

CITY           SKY/WX    TMP DP  RH WIND       PRES   REMARKS
ALBERTVILLE    PTCLDY    50  50 100 SE5       30.23S
FORT PAYNE     CLEAR     48  41  76 CALM      30.25S
SCOTTSBORO AP  PTCLDY    46  46 100 CALM      30.26R
SCOTTSBORO HCN   N/A     45 N/A N/A MISG        N/A
VALLEY HEAD      N/A     48 N/A N/A MISG        N/A
$$

TNZ076-096-097-280500-
SOUTHEASTERN MIDDLE TENNESSEE

CITY           SKY/WX    TMP DP  RH WIND       PRES   REMARKS
TULLAHOMA      CLEAR     48  45  87 SE5       30.22R
WINCHESTER     CLEAR     48  45  87 S3        30.23R
$$

...SURROUNDING SITES...

CITY           SKY/WX    TMP DP  RH WIND       PRES   REMARKS
ATLANTA        MOCLDY    49  47  93 E8        30.28R
ANNISTON       MOCLDY    51  49  92 NE5       30.26R
BIRMINGHAM     CLOUDY    56  55  97 VRB7      30.25R
CHATTANOOGA    PTCLDY    45  43  93 CALM      30.27R
CORINTH        CLOUDY    57  52  82 SE9G16    30.15S
DALTON         CLEAR     43  43 100 CALM      30.27R
GADSDEN        CLOUDY    50  48  93 E5        30.26R
GOLDEN TRNGL   CLOUDY    57  52  82 SE10      30.12F
HALEYVILLE     CLOUDY    55  53  93 S10       30.21R
JACKSON TN     CLOUDY    57  52  83 S10       30.11F
MEMPHIS        MOCLDY    57  52  83 SE12      30.09F
NASHVILLE      PTCLDY    51  45  79 S7        30.21R
OXFORD MS      MOCLDY    54  50  87 E7        30.13F
ROME           CLEAR     44  41  89 CALM      30.27R
SAVANNAH       MOCLDY    55  52  88 S6        30.15F
TUPELO         CLOUDY    57  54  89 SE10      30.15S
TUSCALOOSA     CLOUDY    57  56  96 E5        30.21R
$$

...GULF COAST WEATHER...

CITY           SKY/WX    TMP DP  RH WIND       PRES   REMARKS
GULFPORT       CLOUDY    67  65  93 E13       30.16S
PASCAGOULA     CLOUDY    64  58  80 E5        30.19S
MOBILE         CLOUDY    59  56  89 E9        30.21S
GULF SHORES    CLOUDY    60  60 100 NE6       30.22S
PENSACOLA      CLOUDY    61  57  87 NE10      30.22S
DESTIN         CLOUDY    63  61  93 E9        30.25S
PANAMA CITY    CLOUDY    68  64  88 NE9       30.26R
APPALACHICOLA  PTCLDY    66  66 100 SE3       30.26R
$$




USA.gov is the U.S. government's official web portal to all federal, state and local government web resources and services.